Simultaneous Nadir Overpasses (SNOs) Predictions

Prediction of SNOs between GOES-16 and TERRA Satellite Orbit:

Table of predicted SNOs for the next 14.0 days since TLE Epoch: 7/20/2024
Index Date Time (GOES-16) GOES-16 Lat,Lon TERRA Lat,Lon Distance(km) Time Diff (sec)
1 07/20/2024 15:02:05 0.00, -75.21 0.88, -79.49 485.79 80
2 07/22/2024 14:44:32 0.00, -75.22 0.04, -75.25 5.26 80
3 07/24/2024 14:29:40 -0.01, -75.23 -0.90, -71.03 478.20 80
4 07/25/2024 02:47:01 0.01, -75.23 -0.10, -75.90 75.03 80
5 07/27/2024 02:32:07 0.01, -75.26 0.75, -71.66 408.77 80
6 07/27/2024 14:49:20 -0.01, -75.27 0.26, -76.49 139.51 80
7 07/29/2024 14:34:26 -0.00, -75.30 -0.64, -72.26 345.14 80
8 07/30/2024 02:54:26 0.01, -75.30 -0.35, -77.13 207.49 80
9 08/01/2024 02:34:12 -0.01, -75.33 0.53, -72.89 277.94 80
10 08/01/2024 14:54:03 0.01, -75.34 0.52, -77.71 269.92 80
